Regional Weather Roundup
Issued by NWS Green Bay, WI

Home | Current Version | Previous Version | Text Only | Print | Product List | Glossary On
Versions: 1 2 3 4 5 6 7 8 9 10 11 12 13 14 15 16 17 18 19 20 21 22 23 24 25 26 27 28 29 30 31 32 33 34 35 36 37 38 39 40 41 42 43 44 45 46 47 48 49 50
000
ASUS43 KGRB 270659
RWRGRB

NORTH-CENTRAL AND NORTHEAST WISCONSIN REGIONAL WEATHER ROUNDUP
NATIONAL WEATHER SERVICE GREEN BAY WI
100 AM CST TUE JAN 27 2015

WIZ005-009-010>012-018-019-270800-
NORTH CENTRAL WISCONSIN

CITY           SKY/WX    TMP DP  RH WIND       PRES   REMARKS
IRONWOOD       CLOUDY    21  19  93 CALM      29.94R
MANITOWISH WTR NOT AVBL
ARBOR VITAE    NOT AVBL
EAGLE RIVER    NOT AVBL
LAND O LAKES   NOT AVBL
RHINELANDER    CLOUDY    19  17  92 N3        29.93R
PHILLIPS       NOT AVBL
ANTIGO         NOT AVBL
TOMAHAWK       NOT AVBL
MERRILL        NOT AVBL
$$

WIZ013-073-270800-
NORTHEAST WISCONSIN

CITY           SKY/WX    TMP DP  RH WIND       PRES   REMARKS
IRON MOUNTAIN  LGT SNOW  19  16  88 E6        29.98R FOG
MARINETTE      PTCLDY    21  18  86 E6        30.00S
$$

WIZ017-030-035>037-045-270800-
CENTRAL WISCONSIN

CITY           SKY/WX    TMP DP  RH WIND       PRES   REMARKS
MEDFORD        NOT AVBL
WAUSAU         CLOUDY    22  19  89 CALM      29.93R
MOSINEE        NOT AVBL
MARSHFIELD     CLOUDY    23  20  88 N3        29.94R FOG
WISC RAPIDS    CLOUDY    23  19  85 NE3       29.96R
STEVENS POINT  NOT AVBL
WAUPACA        NOT AVBL
SHAWANO        NOT AVBL
CLINTONVILLE   NOT AVBL
$$

WIZ038-039-048-051-270800-
FOX VALLEY

CITY           SKY/WX    TMP DP  RH WIND       PRES   REMARKS
NWS GREEN BAY  CLOUDY    24  20  84 E8        29.98R
APPLETON       NOT AVBL
OSHKOSH        CLOUDY    24  20  84 E3        29.95R
FOND DU LAC    CLOUDY    24  20  84 NE5       29.95R
$$

WIZ022-050-052-270800-
EAST CENTRAL WISCONSIN

CITY           SKY/WX    TMP DP  RH WIND       PRES   REMARKS
STURGEON BAY   CLOUDY    21  18  86 SE5       30.02R
MANITOWOC      NOT AVBL
SHEBOYGAN      CLOUDY    26  19  74 E8        29.96R
$$

LMZ563-521-522-541>543-270800-
LAKESHORE

STATION/POSITION TIME  TEMP    WIND        PRES    VSBY  WAVE
                       AIR SEA DIR/SP/G                  HT/PER
                 (UTC) (F)     (DEG/KT/KT) (MB)    (MI)  (FT/S)
SHEBOYGAN LKSHOR 0600   27     110/ 15/ 16 1015.2R
KEWAUNEE LKSHORE 0600   24     150/  9/ 11 1014.7R
NORTHPORT PIER   0600   25     130/  9/ 11 1016.6R
SISTER BAY LKSHO 0600   24     150/  5/  6   N/A
CHAMBERS ISLAND  0600   22      80/  2/  3 1016.6R
MENOMINEE LKSHOR 0600   21      50/  4     1016.7R
$$


USA.gov is the U.S. government's official web portal to all federal, state and local government web resources and services.